IU1JVO-13 Weather Reports


Display with metric or nautical units.
time (UTC)temp
F
wind
direction
speed
MPH
gust
MPH
rain 1hr
in
rain 24hr
in
rain mn
in
humidity
%
barometer
mb
20260901040457 70 280 3.0 21.0 0.00 0.00 0.00 34 1019.7
20260901040442 70 281 3.0 21.0 0.00 0.00 0.00 34 1019.7
20260901040216 70 284 5.0 21.0 0.00 0.00 0.00 35 1019.6
20260901035441 70 281 6.0 21.0 0.00 0.00 0.00 35 1019.6
20260901034941 70 281 6.0 20.0 0.00 0.00 0.00 34 1019.7
20260901034717 70 281 8.0 20.0 0.00 0.00 0.00 34 1019.5
20260901034658 70 280 8.0 20.0 0.00 0.00 0.00 34 1019.5
20260901033942 70 289 8.0 20.0 0.00 0.00 0.00 35 1019.5
20260901033441 71 296 6.0 18.0 0.00 0.00 0.00 35 1019.9
20260901032940 71 286 7.0 15.0 0.00 0.00 0.00 35 1019.7
20260901032457 71 279 7.0 15.0 0.00 0.00 0.00 35 1019.6
20260901032440 71 278 7.0 15.0 0.00 0.00 0.00 35 1019.6
20260901031940 71 282 6.0 15.0 0.00 0.00 0.00 34 1019.6
20260901031459 71 286 6.0 16.0 0.00 0.00 0.00 35 1019.6
20260901031439 71 285 6.0 17.0 0.00 0.00 0.00 35 1019.6
20260901030940 71 286 6.0 19.0 0.00 0.00 0.00 35 1019.5
20260901030457 71 280 6.0 19.0 0.00 0.00 0.00 35 1019.8
20260901030441 71 281 7.0 19.0 0.00 0.00 0.00 35 1019.8
20260901025937 71 280 6.0 19.0 0.00 0.00 0.00 35 1019.7
20260901025457 71 287 5.0 19.0 0.00 0.00 0.00 35 1019.7
20260901025437 71 286 5.0 19.0 0.00 0.00 0.00 35 1019.7
20260901024936 71 291 5.0 17.0 0.00 0.00 0.00 35 1019.7
20260901024457 71 285 5.0 16.0 0.00 0.00 0.00 34 1019.7
20260901024436 71 284 5.0 16.0 0.00 0.00 0.00 34 1019.7
20260901023936 71 275 5.0 16.0 0.00 0.00 0.00 34 1019.7
20260901023457 71 279 5.0 16.0 0.00 0.00 0.00 35 1020.0
20260901023436 71 279 5.0 16.0 0.00 0.00 0.00 35 1019.9
20260901022936 71 286 6.0 16.0 0.00 0.00 0.00 35 1020.0
20260901022435 71 282 5.0 13.0 0.00 0.00 0.00 35 1019.9
20260901021936 71 281 5.0 13.0 0.00 0.00 0.00 35 1020.2
20260901021457 71 280 6.0 13.0 0.00 0.00 0.00 35 1020.1
20260901021436 71 279 6.0 13.0 0.00 0.00 0.00 35 1020.1
20260901020937 71 276 5.0 13.0 0.00 0.00 0.00 35 1020.2
20260901020457 71 285 5.0 13.0 0.00 0.00 0.00 35 1020.2
20260901020438 71 286 5.0 13.0 0.00 0.00 0.00 35 1020.2
20260901015938 71 288 5.0 13.0 0.00 0.00 0.00 35 1020.3
20260901015457 71 283 5.0 13.0 0.00 0.00 0.00 35 1020.3
20260901015439 71 281 5.0 13.0 0.00 0.00 0.00 35 1020.3
20260901015209 71 285 5.0 12.0 0.00 0.00 0.00 35 1020.3
20260901014711 71 282 5.0 14.0 0.00 0.00 0.00 35 1020.3
20260901014654 71 281 5.0 14.0 0.00 0.00 0.00 35 1020.3
20260901013938 71 282 4.0 14.0 0.00 0.00 0.00 35 1020.9
20260901013437 71 277 5.0 14.0 0.00 0.00 0.00 35 1020.9
20260901012934 71 270 5.0 14.0 0.00 0.00 0.00 35 1020.9
20260901012433 71 283 4.0 13.0 0.00 0.00 0.00 35 1020.9
20260901011934 71 294 3.0 9.0 0.00 0.00 0.00 36 1020.8
20260901011433 71 289 3.0 9.0 0.00 0.00 0.00 36 1020.9
20260901010934 71 286 3.0 13.0 0.00 0.00 0.00 36 1021.0
20260901010457 71 285 3.0 13.0 0.00 0.00 0.00 36 1020.9
20260901010433 71 285 3.0 13.0 0.00 0.00 0.00 36 1020.8
20260901005933 71 282 4.0 13.0 0.00 0.00 0.00 36 1020.9
20260901005457 71 278 4.0 13.0 0.00 0.00 0.00 36 1021.1
20260901005434 71 277 4.0 13.0 0.00 0.00 0.00 36 1021.1
20260901004934 71 277 5.0 14.0 0.00 0.00 0.00 36 1021.2
20260901004434 71 274 4.0 14.0 0.00 0.00 0.00 36 1021.1
20260901003934 71 271 5.0 14.0 0.00 0.00 0.00 36 1021.2
20260901003457 72 266 6.0 14.0 0.00 0.00 0.00 35 1021.3
20260901003435 72 265 6.0 14.0 0.00 0.00 0.00 35 1021.3
20260901002934 72 258 6.0 14.0 0.00 0.00 0.00 35 1021.2
20260901002453 72 264 5.0 12.0 0.00 0.00 0.00 36 1021.1
20260901002433 72 265 5.0 12.0 0.00 0.00 0.00 36 1021.1
20260901002215 73 274 5.0 12.0 0.00 0.00 0.00 35 1021.3
20260901002210 73 260 6.0 12.0 0.00 0.00 0.00 35 1021.3
20260901001653 73 261 6.0 12.0 0.00 0.00 0.00 35 1021.3
20260901000930 74 251 6.0 13.0 0.00 0.00 0.00 35 1021.4
20260901000646 73 262 5.0 19.0 0.00 0.00 0.00 36 1021.4
20260901000204 73 254 6.0 19.0 0.00 0.00 0.00 35 1021.3
20260831235453 74 240 8.0 19.0 0.00 0.00 0.00 34 1021.4
20260831235430 74 239 8.0 19.0 0.00 0.00 0.00 34 1021.4
20260831235202 74 229 8.0 19.0 0.00 0.00 0.00 34 1021.2
20260831234704 74 232 7.0 16.0 0.00 0.00 0.00 35 1021.4
20260831234646 74 231 7.0 16.0 0.00 0.00 0.00 35 1021.4
20260831233928 73 240 6.0 12.0 0.00 0.00 0.00 36 1021.5
20260831233454 73 242 6.0 12.0 0.00 0.00 0.00 36 1021.4
20260831233427 73 243 6.0 12.0 0.00 0.00 0.00 36 1021.4
20260831232921 73 257 5.0 13.0 0.00 0.00 0.00 36 1021.4
20260831232453 74 253 6.0 13.0 0.00 0.00 0.00 35 1021.7
20260831232422 74 251 6.0 13.0 0.00 0.00 0.00 35 1021.7
20260831231922 74 246 6.0 17.0 0.00 0.00 0.00 35 1021.5
20260831231453 74 253 6.0 17.0 0.00 0.00 0.00 34 1021.5
20260831231422 74 251 6.0 17.0 0.00 0.00 0.00 34 1021.5
20260831230921 75 240 6.0 17.0 0.00 0.00 0.00 34 1021.6
20260831230452 75 233 7.0 17.0 0.00 0.00 0.00 33 1021.6
20260831230422 75 234 7.0 17.0 0.00 0.00 0.00 33 1021.6
20260831225922 75 241 7.0 17.0 0.00 0.00 0.00 34 1021.6
20260831225453 75 241 7.0 20.0 0.00 0.00 0.00 34 1021.6
20260831225421 76 240 7.0 20.0 0.00 0.00 0.00 33 1021.6
20260831224921 76 231 7.0 20.0 0.00 0.00 0.00 33 1021.5
20260831224638 76 229 8.0 20.0 0.00 0.00 0.00 33 1021.5
20260831223921 76 233 8.0 20.0 0.00 0.00 0.00 33 1021.4
20260831223452 76 240 7.0 17.0 0.00 0.00 0.00 34 1021.5
20260831223421 76 241 8.0 17.0 0.00 0.00 0.00 34 1021.4
20260831222920 76 248 8.0 17.0 0.00 0.00 0.00 34 1021.3
20260831222452 76 241 8.0 17.0 0.00 0.00 0.00 34 1021.4
20260831222419 76 240 8.0 17.0 0.00 0.00 0.00 34 1021.4
20260831221919 76 232 9.0 17.0 0.00 0.00 0.00 33 1021.5
20260831221453 76 236 8.0 17.0 0.00 0.00 0.00 33 1021.4
20260831221420 76 237 8.0 17.0 0.00 0.00 0.00 33 1021.4
20260831220919 76 232 8.0 20.0 0.00 0.00 0.00 34 1021.5
20260831220705 76 238 7.0 20.0 0.00 0.00 0.00 33 1021.2
20260831220642 76 238 7.0 20.0 0.00 0.00 0.00 33 1021.4
20260831215917 76 234 8.0 20.0 0.00 0.00 0.00 33 1021.4
20260831215452 76 223 9.0 20.0 0.00 0.00 0.00 33 1021.4
20260831215416 77 223 9.0 20.0 0.00 0.00 0.00 33 1021.6
20260831214917 77 228 8.0 16.0 0.00 0.00 0.00 34 1021.6
20260831214655 77 248 6.0 16.0 0.00 0.00 0.00 33 1021.3
20260831214637 77 247 6.0 16.0 0.00 0.00 0.00 34 1021.3
20260831213917 77 258 6.0 15.0 0.00 0.00 0.00 33 1021.1
20260831213657 77 245 6.0 15.0 0.00 0.00 0.00 34 1021.1
20260831213639 77 247 6.0 15.0 0.00 0.00 0.00 34 1021.2
20260831212917 77 234 7.0 18.0 0.00 0.00 0.00 33 1021.1
20260831212452 77 233 8.0 18.0 0.00 0.00 0.00 33 1021.2
20260831212416 77 234 8.0 18.0 0.00 0.00 0.00 33 1021.2
20260831211916 77 236 8.0 18.0 0.00 0.00 0.00 33 1021.2
20260831211452 77 231 8.0 18.0 0.00 0.00 0.00 33 1021.1
20260831211415 77 230 9.0 18.0 0.00 0.00 0.00 33 1021.1
20260831210915 77 222 9.0 18.0 0.00 0.00 0.00 33 1021.1
20260831210451 78 227 8.0 17.0 0.00 0.00 0.00 33 1021.1
20260831210416 78 226 8.0 17.0 0.00 0.00 0.00 33 1021.0
20260831205916 78 229 9.0 18.0 0.00 0.00 0.00 33 1020.9
20260831205452 78 225 9.0 18.0 0.00 0.00 0.00 32 1020.6
20260831205416 78 226 9.0 18.0 0.00 0.00 0.00 32 1020.6
20260831204916 78 240 9.0 18.0 0.00 0.00 0.00 32 1020.7
20260831204453 78 252 6.0 18.0 0.00 0.00 0.00 32 1020.6
20260831204416 78 249 6.0 18.0 0.00 0.00 0.00 32 1020.6
20260831203915 78 248 5.0 14.0 0.00 0.00 0.00 32 1020.4
20260831203652 78 252 6.0 15.0 0.00 0.00 0.00 30 1020.8
20260831203634 78 247 6.0 15.0 0.00 0.00 0.00 31 1020.7
20260831202918 78 274 5.0 15.0 0.00 0.00 0.00 30 1020.4
20260831202655 78 287 5.0 16.0 0.00 0.00 0.00 32 1020.3
20260831202635 78 293 5.0 16.0 0.00 0.00 0.00 32 1020.3
20260831201920 78 256 5.0 16.0 0.00 0.00 0.00 31 1020.2
20260831201449 78 253 5.0 16.0 0.00 0.00 0.00 32 1020.0
20260831201417 78 252 4.0 16.0 0.00 0.00 0.00 32 1020.0
20260831201150 78 312 4.0 16.0 0.00 0.00 0.00 32 1020.1
20260831200446 79 306 5.0 14.0 0.00 0.00 0.00 32 1020.2
20260831200416 79 311 5.0 14.0 0.00 0.00 0.00 32 1020.2
20260831195917 79 288 5.0 15.0 0.00 0.00 0.00 32 1020.0
20260831195447 79 332 4.0 19.0 0.00 0.00 0.00 32 1020.1
20260831195415 79 327 4.0 19.0 0.00 0.00 0.00 32 1020.1
20260831194916 79 308 4.0 19.0 0.00 0.00 0.00 32 1020.0
20260831194448 79 257 6.0 19.0 0.00 0.00 0.00 32 1020.0
20260831194415 79 257 6.0 19.0 0.00 0.00 0.00 31 1020.0
20260831193915 80 245 7.0 19.0 0.00 0.00 0.00 31 1019.9
20260831193447 80 232 6.0 16.0 0.00 0.00 0.00 31 1019.8
20260831193415 80 227 6.0 16.0 0.00 0.00 0.00 31 1019.8
20260831192916 80 203 5.0 18.0 0.00 0.00 0.00 31 1019.7
20260831192447 80 211 5.0 18.0 0.00 0.00 0.00 30 1019.8
20260831192416 80 209 5.0 18.0 0.00 0.00 0.00 30 1019.8
20260831191916 80 244 7.0 18.0 0.00 0.00 0.00 31 1019.6
20260831191448 80 255 7.0 18.0 0.00 0.00 0.00 30 1019.7
20260831191416 80 259 7.0 18.0 0.00 0.00 0.00 30 1019.7
20260831191148 81 285 5.0 15.0 0.00 0.00 0.00 30 1019.6
20260831190445 81 267 6.0 15.0 0.00 0.00 0.00 29 1019.5
20260831190419 81 265 6.0 15.0 0.00 0.00 0.00 29 1019.5
20260831185917 81 264 6.0 15.0 0.00 0.00 0.00 29 1019.3
20260831185651 81 263 6.0 15.0 0.00 0.00 0.00 29 1019.4
20260831185632 81 264 6.0 15.0 0.00 0.00 0.00 29 1019.4
20260831184916 81 255 6.0 15.0 0.00 0.00 0.00 29 1019.2
20260831184652 82 257 5.0 14.0 0.00 0.00 0.00 29 1019.1
20260831184634 82 259 4.0 14.0 0.00 0.00 0.00 29 1019.1
20260831183916 82 229 4.0 14.0 0.00 0.00 0.00 28 1018.9
20260831183416 82 260 4.0 14.0 0.00 0.00 0.00 28 1018.9
20260831182916 82 268 4.0 11.0 0.00 0.00 0.00 27 1018.6
20260831182443 83 243 6.0 13.0 0.00 0.00 0.00 27 1018.9
20260831182416 83 247 6.0 13.0 0.00 0.00 0.00 27 1018.9
20260831181916 83 250 5.0 15.0 0.00 0.00 0.00 26 1018.7
20260831181443 83 255 5.0 16.0 0.00 0.00 0.00 25 1018.7
20260831181416 83 254 5.0 16.0 0.00 0.00 0.00 25 1018.7
20260831181152 83 245 7.0 16.0 0.00 0.00 0.00 25 1018.6
20260831180442 83 239 8.0 16.0 0.00 0.00 0.00 26 1018.4
20260831180416 83 236 8.0 16.0 0.00 0.00 0.00 26 1018.4
20260831175916 84 239 8.0 16.0 0.00 0.00 0.00 25 1018.4
20260831175442 84 245 8.0 16.0 0.00 0.00 0.00 23 1018.5
20260831175416 84 248 7.0 15.0 0.00 0.00 0.00 23 1018.5
20260831174916 84 247 7.0 15.0 0.00 0.00 0.00 24 1018.4
20260831174443 84 245 6.0 16.0 0.00 0.00 0.00 24 1018.3
20260831174416 84 242 6.0 16.0 0.00 0.00 0.00 24 1018.3
20260831173916 84 237 7.0 16.0 0.00 0.00 0.00 24 1018.4
20260831173443 84 232 9.0 16.0 0.00 0.00 0.00 23 1018.3
20260831173416 84 234 9.0 16.0 0.00 0.00 0.00 23 1018.3
20260831172916 85 238 9.0 17.0 0.00 0.00 0.00 23 1018.3
20260831172444 85 234 8.0 17.0 0.00 0.00 0.00 22 1018.3
20260831172415 85 233 8.0 17.0 0.00 0.00 0.00 22 1018.3
20260831171916 85 225 7.0 19.0 0.00 0.00 0.00 23 1018.2
20260831171634 85 226 7.0 19.0 0.00 0.00 0.00 22 1018.3
20260831170917 86 226 8.0 19.0 0.00 0.00 0.00 23 1018.4
20260831170442 86 228 8.0 19.0 0.00 0.00 0.00 22 1018.5
20260831170415 86 229 8.0 19.0 0.00 0.00 0.00 22 1018.5
20260831165916 87 232 7.0 16.0 0.00 0.00 0.00 23 1018.6
20260831165445 87 241 8.0 16.0 0.00 0.00 0.00 22 1018.7
20260831165416 87 241 7.0 16.0 0.00 0.00 0.00 23 1018.7
20260831165145 87 241 8.0 16.0 0.00 0.00 0.00 23 1018.6
20260831164416 88 240 7.0 16.0 0.00 0.00 0.00 22 1018.4
20260831163916 88 247 8.0 17.0 0.00 0.00 0.00 21 1018.4
20260831163442 88 241 8.0 18.0 0.00 0.00 0.00 21 1018.4
20260831163416 88 239 8.0 18.0 0.00 0.00 0.00 21 1018.4
20260831162916 88 233 8.0 20.0 0.00 0.00 0.00 22 1018.4
20260831162652 88 234 8.0 20.0 0.00 0.00 0.00 21 1018.4
20260831162633 88 232 9.0 20.0 0.00 0.00 0.00 21 1018.4
20260831161916 89 229 8.0 20.0 0.00 0.00 0.00 21 1018.3
20260831161441 89 228 8.0 20.0 0.00 0.00 0.00 21 1018.4
20260831161416 89 229 8.0 20.0 0.00 0.00 0.00 21 1018.4
20260831160916 89 230 8.0 20.0 0.00 0.00 0.00 22 1018.4
20260831160441 89 234 8.0 20.0 0.00 0.00 0.00 22 1018.4
20260831160411 89 234 9.0 20.0 0.00 0.00 0.00 22 1018.4
20260831155911 89 235 9.0 20.0 0.00 0.00 0.00 22 1018.2
20260831155441 89 232 9.0 20.0 0.00 0.00 0.00 23 1018.2
20260831155418 89 229 8.0 19.0 0.00 0.00 0.00 23 1018.4
20260831155412 89 232 9.0 20.0 0.00 0.00 0.00 23 1018.3
20260831154643 90 229 8.0 21.0 0.00 0.00 0.00 22 1018.5
20260831154626 89 230 8.0 19.0 0.00 0.00 0.00 22 1018.5
20260831153911 90 229 6.0 21.0 0.00 0.00 0.00 22 1018.5
20260831153436 90 226 7.0 21.0 0.00 0.00 0.00 21 1018.4
20260831153411 90 228 7.0 21.0 0.00 0.00 0.00 21 1018.4
20260831153143 90 228 9.0 21.0 0.00 0.00 0.00 22 1018.5
20260831152648 90 226 7.0 20.0 0.00 0.00 0.00 22 1018.3
20260831152630 90 226 8.0 21.0 0.00 0.00 0.00 22 1018.3
20260831151911 90 229 7.0 20.0 0.00 0.00 0.00 22 1018.3
20260831151436 90 230 8.0 20.0 0.00 0.00 0.00 23 1018.5
20260831151411 90 231 8.0 20.0 0.00 0.00 0.00 22 1018.5
20260831150911 90 231 8.0 19.0 0.00 0.00 0.00 23 1018.4
20260831150437 90 232 7.0 19.0 0.00 0.00 0.00 23 1018.5
20260831150411 90 229 7.0 19.0 0.00 0.00 0.00 23 1018.5
20260831145910 90 225 9.0 19.0 0.00 0.00 0.00 22 1018.4
20260831145437 90 228 10.0 22.0 0.00 0.00 0.00 21 1018.4
20260831145411 90 231 10.0 22.0 0.00 0.00 0.00 21 1018.4
20260831144912 90 233 9.0 22.0 0.00 0.00 0.00 21 1018.2
20260831144437 90 232 9.0 22.0 0.00 0.00 0.00 22 1018.3
20260831144412 90 231 9.0 22.0 0.00 0.00 0.00 22 1018.3
20260831143924 90 229 8.0 17.0 0.00 0.00 0.00 21 1018.3
20260831143920 91 230 7.0 17.0 0.00 0.00 0.00 21 1018.2
20260831143912 90 228 9.0 22.0 0.00 0.00 0.00 21 1018.2
20260831143622 90 228 8.0 21.0 0.00 0.00 0.00 22 1018.3
20260831142439 91 233 7.0 21.0 0.00 0.00 0.00 21 1018.3
20260831142406 91 231 7.0 21.0 0.00 0.00 0.00 21 1018.3
20260831141906 91 235 7.0 21.0 0.00 0.00 0.00 20 1018.1
20260831141650 91 235 6.0 22.0 0.00 0.00 0.00 20 1018.3
20260831141631 91 234 6.0 22.0 0.00 0.00 0.00 21 1018.3
20260831140906 90 229 7.0 22.0 0.00 0.00 0.00 20 1018.2
20260831140644 90 228 8.0 22.0 0.00 0.00 0.00 21 1018.1
20260831140627 90 230 8.0 22.0 0.00 0.00 0.00 20 1018.1
20260831135905 90 226 8.0 22.0 0.00 0.00 0.00 20 1018.2
20260831135644 90 226 9.0 16.0 0.00 0.00 0.00 21 1018.3
20260831135626 90 225 9.0 16.0 0.00 0.00 0.00 21 1018.3
20260831134905 90 227 8.0 18.0 0.00 0.00 0.00 21 1018.1
20260831134640 90 225 7.0 18.0 0.00 0.00 0.00 21 1018.2
20260831134622 90 222 7.0 18.0 0.00 0.00 0.00 21 1018.2
20260831134135 90 231 8.0 18.0 0.00 0.00 0.00 21 1018.2
20260831133437 90 235 9.0 18.0 0.00 0.00 0.00 21 1018.2
20260831133406 90 232 9.0 18.0 0.00 0.00 0.00 21 1018.2
20260831132906 90 232 8.0 18.0 0.00 0.00 0.00 21 1018.1
20260831132644 90 228 7.0 19.0 0.00 0.00 0.00 22 1018.1
20260831132626 90 229 7.0 19.0 0.00 0.00 0.00 22 1018.1
20260831131905 90 225 8.0 19.0 0.00 0.00 0.00 20 1018.3
20260831131439 90 220 9.0 21.0 0.00 0.00 0.00 21 1018.3
20260831131407 90 221 9.0 21.0 0.00 0.00 0.00 21 1018.3
20260831130905 90 223 9.0 21.0 0.00 0.00 0.00 21 1018.2
20260831130437 90 226 9.0 21.0 0.00 0.00 0.00 21 1018.3
20260831130407 90 226 9.0 21.0 0.00 0.00 0.00 22 1018.3
20260831125906 90 224 10.0 21.0 0.00 0.00 0.00 20 1018.5
20260831125437 90 223 9.0 21.0 0.00 0.00 0.00 21 1018.4
20260831125406 90 223 9.0 21.0 0.00 0.00 0.00 21 1018.4
20260831124905 90 229 10.0 21.0 0.00 0.00 0.00 21 1018.3
20260831124437 89 231 10.0 21.0 0.00 0.00 0.00 21 1018.5
20260831124405 89 230 10.0 21.0 0.00 0.00 0.00 21 1018.5
20260831123902 89 233 9.0 22.0 0.00 0.00 0.00 22 1018.4
20260831123636 89 228 9.0 22.0 0.00 0.00 0.00 21 1018.4
20260831123619 90 228 9.0 22.0 0.00 0.00 0.00 21 1018.4
20260831122900 89 218 9.0 22.0 0.00 0.00 0.00 22 1018.2
20260831122632 89 221 9.0 22.0 0.00 0.00 0.00 21 1018.4
20260831122616 89 220 9.0 22.0 0.00 0.00 0.00 21 1018.4
20260831121903 89 225 9.0 23.0 0.00 0.00 0.00 22 1018.4
20260831121437 89 229 10.0 23.0 0.00 0.00 0.00 23 1018.3
20260831121359 89 228 10.0 23.0 0.00 0.00 0.00 22 1018.3
20260831120900 89 228 10.0 23.0 0.00 0.00 0.00 22 1018.4
20260831120436 89 231 9.0 26.0 0.00 0.00 0.00 22 1018.6
20260831120358 89 231 9.0 26.0 0.00 0.00 0.00 22 1018.7
20260831120129 89 234 9.0 26.0 0.00 0.00 0.00 23 1018.6
20260831115437 89 232 10.0 26.0 0.00 0.00 0.00 23 1018.4
20260831115355 88 234 10.0 26.0 0.00 0.00 0.00 23 1018.5
20260831114855 88 230 9.0 26.0 0.00 0.00 0.00 23 1018.5
20260831114436 88 226 9.0 24.0 0.00 0.00 0.00 23 1018.5
20260831114356 88 225 10.0 24.0 0.00 0.00 0.00 23 1018.7
20260831113856 88 228 11.0 27.0 0.00 0.00 0.00 23 1018.5
20260831113437 88 223 9.0 27.0 0.00 0.00 0.00 23 1018.6
20260831113356 88 225 9.0 27.0 0.00 0.00 0.00 23 1018.6
20260831112856 89 228 9.0 27.0 0.00 0.00 0.00 23 1018.4
20260831112437 88 230 11.0 27.0 0.00 0.00 0.00 24 1018.6
20260831112355 88 228 11.0 27.0 0.00 0.00 0.00 23 1018.5
20260831111856 88 223 10.0 21.0 0.00 0.00 0.00 22 1018.6
20260831111438 88 228 10.0 22.0 0.00 0.00 0.00 23 1018.3
20260831111355 88 226 10.0 22.0 0.00 0.00 0.00 23 1018.3
20260831110855 88 230 10.0 22.0 0.00 0.00 0.00 23 1018.6
20260831110437 88 223 10.0 22.0 0.00 0.00 0.00 24 1018.9
20260831110354 88 225 10.0 22.0 0.00 0.00 0.00 23 1018.9
20260831105853 88 220 10.0 22.0 0.00 0.00 0.00 23 1018.9
20260831105437 88 227 9.0 22.0 0.00 0.00 0.00 22 1018.6
20260831105356 88 229 9.0 22.0 0.00 0.00 0.00 22 1018.6
20260831104854 88 236 8.0 22.0 0.00 0.00 0.00 22 1018.5
20260831104627 87 232 10.0 22.0 0.00 0.00 0.00 23 1018.4
20260831104609 87 233 10.0 22.0 0.00 0.00 0.00 23 1018.5
20260831103854 87 233 10.0 22.0 0.00 0.00 0.00 22 1018.6
20260831103433 87 232 9.0 21.0 0.00 0.00 0.00 23 1018.5
20260831103354 87 230 9.0 21.0 0.00 0.00 0.00 23 1018.5
20260831102854 87 227 7.0 21.0 0.00 0.00 0.00 23 1018.6
20260831102434 87 224 6.0 18.0 0.00 0.00 0.00 23 1018.6
20260831102353 87 221 6.0 18.0 0.00 0.00 0.00 24 1018.7
20260831101854 87 221 8.0 18.0 0.00 0.00 0.00 24 1018.7
20260831101433 86 226 9.0 18.0 0.00 0.00 0.00 25 1018.9
20260831101354 86 229 9.0 18.0 0.00 0.00 0.00 25 1018.9
20260831100854 86 242 8.0 18.0 0.00 0.00 0.00 26 1018.9
20260831100433 86 231 6.0 13.0 0.00 0.00 0.00 26 1018.7
20260831100354 86 230 6.0 13.0 0.00 0.00 0.00 26 1018.9
20260831095853 86 212 6.0 6.0 0.00 0.00 0.00 26 1019.0
20260831095433 85 213 6.0 6.0 0.00 0.00 0.00 36 1019.0
20260831095352 85 213 6.0 6.0 0.00 0.00 0.00 36 1018.9
20260831094852 85 213 6.0 6.0 0.00 0.00 0.00 36 1019.1
20260831094431 85 189 5.0 7.0 0.00 0.00 0.00 36 1019.1
20260831094352 85 186 5.0 7.0 0.00 0.00 0.00 36 1019.0
20260831093857 85 179 4.0 7.0 0.00 0.00 0.00 36 1019.2
20260831093430 84 227 6.0 7.0 0.00 0.00 0.00 36 1019.2
20260831093352 84 233 6.0 7.0 0.00 0.00 0.00 36 1019.3
20260831092851 83 260 7.0 11.0 0.00 0.00 0.00 36 1019.2
20260831092432 83 237 5.0 20.0 0.00 0.00 0.00 39 1019.3
20260831092350 83 235 5.0 20.0 0.00 0.00 0.00 39 1019.3
20260831091848 83 218 5.0 20.0 0.00 0.00 0.00 39 1019.2
20260831091431 82 240 7.0 20.0 0.00 0.00 0.00 39 1019.2
20260831091348 82 241 8.0 20.0 0.00 0.00 0.00 40 1019.1
20260831090847 82 237 9.0 20.0 0.00 0.00 0.00 40 1019.0
20260831090431 81 229 8.0 15.0 0.00 0.00 0.00 42 1019.1
20260831090347 81 227 8.0 15.0 0.00 0.00 0.00 42 1019.1
20260831085847 80 258 6.0 15.0 0.00 0.00 0.00 43 1019.1
20260831085431 78 274 4.0 10.0 0.00 0.00 0.00 46 1019.1
20260831085346 78 275 4.0 10.0 0.00 0.00 0.00 49 1019.1
20260831084846 77 260 3.0 5.0 0.00 0.00 0.00 49 1019.1
20260831084431 77 250 3.0 4.0 0.00 0.00 0.00 50 1019.1
20260831084345 77 249 3.0 4.0 0.00 0.00 0.00 50 1019.1
20260831083846 78 242 2.0 4.0 0.00 0.00 0.00 50 1019.3
20260831083430 78 208 2.0 4.0 0.00 0.00 0.00 50 1019.1
20260831083345 78 206 1.0 4.0 0.00 0.00 0.00 50 1019.1
20260831082846 77 223 2.0 3.0 0.00 0.00 0.00 51 1019.0
20260831082620 75 267 2.0 3.0 0.00 0.00 0.00 57 1018.9
20260831082603 77 264 2.0 3.0 0.00 0.00 0.00 51 1019.1
20260831082113 75 257 2.0 3.0 0.00 0.00 0.00 57 1019.0
20260831081428 75 247 1.0 3.0 0.00 0.00 0.00 57 1019.0
20260831081342 75 246 1.0 3.0 0.00 0.00 0.00 57 1019.1
20260831080841 75 246 0.0 0.0 0.00 0.00 0.00 55 1019.0
20260831080428 75 246 0.0 0.0 0.00 0.00 0.00 55 1019.0
20260831080340 75 246 0.0 0.0 0.00 0.00 0.00 55 1019.0
20260831075837 75 246 0.0 0.0 0.00 0.00 0.00 55 1019.0
20260831075427 75 246 0.0 0.0 0.00 0.00 0.00 55 1019.1
20260831075335 75 246 0.0 0.0 0.00 0.00 0.00 55 1019.1
20260831074838 75 242 0.0 1.0 0.00 0.00 0.00 55 1018.9
20260831074427 74 239 0.0 1.0 0.00 0.00 0.00 55 1018.9
20260831074337 74 238 0.0 2.0 0.00 0.00 0.00 55 1018.9
20260831073836 75 231 0.0 2.0 0.00 0.00 0.00 55 1018.9
20260831073427 75 131 0.0 2.0 0.00 0.00 0.00 55 1018.9
20260831073336 75 114 0.0 2.0 0.00 0.00 0.00 55 1018.9
20260831072835 75 92 0.0 2.0 0.00 0.00 0.00 55 1018.9
20260831072427 75 94 0.0 2.0 0.00 0.00 0.00 54 1018.9
20260831072333 76 94 0.0 2.0 0.00 0.00 0.00 55 1018.9
20260831071833 72 92 0.0 2.0 0.00 0.00 0.00 58 1018.6
20260831071428 72 88 0.0 2.0 0.00 0.00 0.00 58 1018.6
20260831071334 72 87 0.0 4.0 0.00 0.00 0.00 58 1018.6
20260831071106 72 76 1.0 4.0 0.00 0.00 0.00 58 1018.6
20260831070426 71 69 2.0 4.0 0.00 0.00 0.00 59 1018.6
20260831070332 71 68 2.0 4.0 0.00 0.00 0.00 65 1018.7
20260831070105 70 77 2.0 4.0 0.00 0.00 0.00 65 1018.6
20260831065428 70 77 1.0 4.0 0.00 0.00 0.00 65 1018.6
20260831065332 69 75 1.0 3.0 0.00 0.00 0.00 65 1018.6
20260831064830 69 62 0.0 4.0 0.00 0.00 0.00 65 1018.7
20260831064606 68 257 0.0 4.0 0.00 0.00 0.00 67 1018.7
20260831064553 68 274 0.0 4.0 0.00 0.00 0.00 66 1018.7
20260831064057 68 257 2.0 4.0 0.00 0.00 0.00 66 1018.9
20260831063427 68 239 2.0 4.0 0.00 0.00 0.00 67 1019.2
20260831063330 68 188 1.0 4.0 0.00 0.00 0.00 66 1019.1
20260831062830 69 75 0.0 2.0 0.00 0.00 0.00 66 1019.0
20260831062429 69 330 0.0 2.0 0.00 0.00 0.00 65 1019.0
20260831062329 69 318 0.0 2.0 0.00 0.00 0.00 71 1018.9
20260831061828 66 318 0.0 3.0 0.00 0.00 0.00 71 1018.6
20260831061425 66 38 1.0 6.0 0.00 0.00 0.00 71 1018.6
20260831061327 66 55 1.0 6.0 0.00 0.00 0.00 71 1018.6
20260831060826 66 79 2.0 6.0 0.00 0.00 0.00 71 1018.6
20260831060425 66 82 2.0 6.0 0.00 0.00 0.00 71 1018.6
20260831060326 66 76 2.0 6.0 0.00 0.00 0.00 71 1018.6
20260831055826 67 50 2.0 6.0 0.00 0.00 0.00 70 1018.4
20260831055422 66 57 1.0 4.0 0.00 0.00 0.00 70 1018.7
20260831055326 66 55 1.0 4.0 0.00 0.00 0.00 70 1018.6
20260831054827 66 53 0.0 4.0 0.00 0.00 0.00 70 1018.9
20260831054423 66 64 0.0 2.0 0.00 0.00 0.00 70 1018.7
20260831054326 66 64 0.0 2.0 0.00 0.00 0.00 70 1018.6
20260831053825 66 47 0.0 3.0 0.00 0.00 0.00 69 1018.7
20260831053422 66 288 1.0 4.0 0.00 0.00 0.00 69 1018.5
20260831053326 66 280 1.0 4.0 0.00 0.00 0.00 69 1018.5
20260831052826 66 69 0.0 4.0 0.00 0.00 0.00 69 1018.4
20260831052422 66 72 1.0 4.0 0.00 0.00 0.00 67 1018.3
20260831052326 66 71 1.0 4.0 0.00 0.00 0.00 67 1018.3
20260831051824 65 37 1.0 4.0 0.00 0.00 0.00 69 1018.1
20260831051423 65 302 1.0 2.0 0.00 0.00 0.00 71 1018.1
20260831051324 65 275 0.0 4.0 0.00 0.00 0.00 71 1018.2
20260831050824 65 208 0.0 4.0 0.00 0.00 0.00 72 1018.2
20260831050422 65 228 0.0 4.0 0.00 0.00 0.00 72 1018.0
20260831050321 65 234 0.0 4.0 0.00 0.00 0.00 72 1018.0
20260831045821 65 266 1.0 4.0 0.00 0.00 0.00 71 1018.0
20260831045423 66 47 1.0 4.0 0.00 0.00 0.00 69 1018.1
20260831045323 66 48 0.0 3.0 0.00 0.00 0.00 69 1018.1
20260831044822 67 52 1.0 3.0 0.00 0.00 0.00 65 1018.0
20260831044422 66 59 1.0 3.0 0.00 0.00 0.00 66 1018.0
20260831044322 66 61 1.0 3.0 0.00 0.00 0.00 67 1017.8
20260831043821 66 66 1.0 2.0 0.00 0.00 0.00 68 1018.0
20260831043556 65 79 0.0 1.0 0.00 0.00 0.00 71 1017.8
20260831043539 65 76 0.0 1.0 0.00 0.00 0.00 71 1017.9
20260831042821 64 84 0.0 1.0 0.00 0.00 0.00 74 1017.8
20260831042422 64 101 0.0 1.0 0.00 0.00 0.00 74 1018.0
20260831042321 64 122 0.0 1.0 0.00 0.00 0.00 74 1017.9
20260831041821 65 205 0.0 1.0 0.00 0.00 0.00 72 1018.0
20260831041421 66 203 0.0 0.0 0.00 0.00 0.00 70 1018.0
20260831041321 66 203 0.0 0.0 0.00 0.00 0.00 70 1017.9